User: anonymous   Login
Location: Unspecified
(0.0000°N, 0.0000°E)
Time: 17:25:10
(UTC+00:00)
Language:

RASAT - Orbit

View from above orbital plane
View from above orbital plane
View from above satellite
View from above satellite

Ground track
Ground track

The orbit data is extracted from the following two-line orbital elements,

1 37791U 11044D   18116.43308585  .00000039  00000-0  16472-4 0  9996
2 37791  98.1237 209.6537 0021031 212.7418 147.2483 14.64660856357621
Epoch (UTC): 26 April 2018 10:23:38
Eccentricity: 0.0021031
inclination: 98.1237°
perigee height: 663 km
apogee height: 693 km
right ascension of ascending node: 209.6537°
argument of perigee: 212.7418°
revolutions per day: 14.64660856
mean anomaly at epoch: 147.2483°
orbit number at epoch: 35762

The dashed part of the orbit path shows where the satellite is in the earth's shadow,  

DLR